| time (UTC) | temp F | wind direction | speed knots | gust knots | rain 1hr in | rain 24hr in | rain mn in | humidity % | barometer mb |
| 20260510020625 | 65 | 74 | 0.0 | 0.0 | 0.00 | 0.00 | 0.00 | 74 | 1006.1 |
| 20260510020120 | 65 | 74 | 0.0 | 0.0 | 0.00 | 0.00 | 0.00 | 74 | 1006.0 |
| 20260510015614 | 65 | 74 | 0.0 | 0.0 | 0.00 | 0.00 | 0.00 | 73 | 1005.9 |
| 20260510015108 | 65 | 74 | 0.0 | 0.0 | 0.00 | 0.00 | 0.00 | 73 | 1005.9 |
| 20260510014602 | 65 | 74 | 0.0 | 0.0 | 0.00 | 0.00 | 0.00 | 73 | 1005.8 |
| 20260510014317 | 65 | 74 | 0.0 | 0.0 | 0.00 | 0.00 | 0.00 | 73 | 1005.7 |
| 20260510013810 | 64 | 74 | 0.0 | 0.0 | 0.00 | 0.00 | 0.00 | 73 | 1005.8 |
| 20260510013044 | 64 | 74 | 0.0 | 0.0 | 0.00 | 0.00 | 0.00 | 72 | 1005.8 |
| 20260510012757 | 65 | 74 | 0.0 | 0.0 | 0.00 | 0.00 | 0.00 | 70 | 1005.7 |
| 20260510012033 | 65 | 74 | 0.0 | 0.0 | 0.00 | 0.00 | 0.00 | 70 | 1005.6 |
| 20260510011526 | 65 | 74 | 0.0 | 0.0 | 0.00 | 0.00 | 0.00 | 69 | 1005.6 |
| 20260510011020 | 65 | 74 | 0.0 | 0.0 | 0.00 | 0.00 | 0.00 | 68 | 1005.5 |
| 20260510010731 | 66 | 74 | 0.0 | 0.0 | 0.00 | 0.00 | 0.00 | 68 | 1005.5 |
| 20260510010007 | 66 | 74 | 0.0 | 0.0 | 0.00 | 0.00 | 0.00 | 67 | 1005.5 |
| 20260510005502 | 67 | 74 | 0.0 | 0.0 | 0.00 | 0.00 | 0.00 | 66 | 1005.4 |
| 20260510004956 | 67 | 74 | 0.0 | 0.0 | 0.00 | 0.00 | 0.00 | 66 | 1005.3 |
| 20260510004450 | 67 | 74 | 0.0 | 0.0 | 0.00 | 0.00 | 0.00 | 66 | 1005.2 |
| 20260510003944 | 68 | 74 | 0.0 | 0.0 | 0.00 | 0.00 | 0.00 | 64 | 1005.2 |
| 20260510003708 | 68 | 74 | 0.0 | 0.0 | 0.00 | 0.00 | 0.00 | 63 | 1005.1 |
| 20260510002932 | 69 | 74 | 0.0 | 0.0 | 0.00 | 0.00 | 0.00 | 62 | 1005.1 |
| 20260510002910 | 69 | 74 | 0.0 | 0.0 | 0.00 | 0.00 | 0.00 | 62 | 1005.0 |
| 20260510001926 | 70 | 74 | 0.0 | 0.0 | 0.00 | 0.00 | 0.00 | 61 | 1004.9 |
| 20260510001651 | 70 | 74 | 0.0 | 0.0 | 0.00 | 0.00 | 0.00 | 59 | 1005.0 |
| 20260510000926 | 71 | 74 | 0.0 | 0.0 | 0.00 | 0.00 | 0.00 | 59 | 1004.9 |
| 20260510000425 | 72 | 74 | 0.0 | 0.0 | 0.00 | 0.00 | 0.00 | 58 | 1004.7 |
| 20260509235926 | 72 | 74 | 0.0 | 0.9 | 0.00 | 0.00 | 0.00 | 58 | 1004.7 |
| 20260509235425 | 73 | 74 | 0.0 | 0.9 | 0.00 | 0.00 | 0.00 | 56 | 1004.8 |
| 20260509234926 | 73 | 76 | 0.0 | 0.0 | 0.00 | 0.00 | 0.00 | 56 | 1004.7 |
| 20260509234640 | 74 | 76 | 0.0 | 0.0 | 0.00 | 0.00 | 0.00 | 54 | 1004.6 |
| 20260509233925 | 74 | 76 | 0.0 | 0.0 | 0.00 | 0.00 | 0.00 | 53 | 1004.6 |
| 20260509233423 | 74 | 76 | 0.0 | 0.9 | 0.00 | 0.00 | 0.00 | 53 | 1004.7 |
| 20260509232923 | 75 | 76 | 0.0 | 0.9 | 0.00 | 0.00 | 0.00 | 52 | 1004.6 |
| 20260509232424 | 75 | 49 | 0.0 | 1.7 | 0.00 | 0.00 | 0.00 | 51 | 1004.7 |
| 20260509231922 | 75 | 46 | 0.0 | 1.7 | 0.00 | 0.00 | 0.00 | 51 | 1004.7 |
| 20260509231418 | 75 | 173 | 0.0 | 0.9 | 0.00 | 0.00 | 0.00 | 51 | 1004.7 |
| 20260509230918 | 76 | 223 | 0.0 | 0.9 | 0.00 | 0.00 | 0.00 | 51 | 1004.7 |
| 20260509230416 | 76 | 164 | 0.0 | 2.6 | 0.00 | 0.00 | 0.00 | 51 | 1004.7 |
| 20260509225919 | 76 | 146 | 0.0 | 2.6 | 0.00 | 0.00 | 0.00 | 50 | 1004.7 |
| 20260509225421 | 76 | 226 | 0.0 | 0.9 | 0.00 | 0.00 | 0.00 | 52 | 1004.6 |
| 20260509224915 | 76 | 229 | 0.9 | 3.5 | 0.00 | 0.00 | 0.00 | 51 | 1004.5 |
| 20260509224413 | 76 | 226 | 0.9 | 3.5 | 0.00 | 0.00 | 0.00 | 51 | 1004.5 |
| 20260509223914 | 77 | 39 | 0.0 | 3.5 | 0.00 | 0.00 | 0.00 | 51 | 1004.6 |
| 20260509223412 | 77 | 69 | 0.0 | 3.5 | 0.00 | 0.00 | 0.00 | 49 | 1004.5 |
| 20260509223139 | 77 | 35 | 0.0 | 1.7 | 0.00 | 0.00 | 0.00 | 49 | 1004.5 |
| 20260509222630 | 77 | 212 | 0.0 | 3.5 | 0.00 | 0.00 | 0.00 | 50 | 1004.5 |
| 20260509221908 | 77 | 112 | 0.0 | 3.5 | 0.00 | 0.00 | 0.00 | 51 | 1004.6 |
| 20260509221409 | 77 | 197 | 0.0 | 1.7 | 0.00 | 0.00 | 0.00 | 51 | 1004.7 |
| 20260509221132 | 77 | 78 | 0.9 | 2.6 | 0.00 | 0.00 | 0.00 | 51 | 1004.6 |
| 20260509220410 | 77 | 326 | 0.9 | 4.3 | 0.00 | 0.00 | 0.00 | 50 | 1004.6 |
| 20260509215911 | 77 | 264 | 0.0 | 4.3 | 0.00 | 0.00 | 0.00 | 51 | 1004.6 |
| 20260509215410 | 77 | 141 | 0.0 | 0.0 | 0.00 | 0.00 | 0.00 | 51 | 1004.5 |
| 20260509215131 | 76 | 172 | 0.0 | 0.9 | 0.00 | 0.00 | 0.00 | 52 | 1004.6 |
| 20260509214409 | 76 | 48 | 0.0 | 0.9 | 0.00 | 0.00 | 0.00 | 51 | 1004.5 |
| 20260509213906 | 77 | 283 | 0.0 | 0.9 | 0.00 | 0.00 | 0.00 | 51 | 1004.4 |
| 20260509213629 | 77 | 51 | 0.0 | 1.7 | 0.00 | 0.00 | 0.00 | 50 | 1004.4 |
| 20260509213128 | 78 | 133 | 0.0 | 1.7 | 0.00 | 0.00 | 0.00 | 49 | 1004.4 |
| 20260509212404 | 78 | 214 | 0.9 | 3.5 | 0.00 | 0.00 | 0.00 | 49 | 1004.5 |
| 20260509212125 | 78 | 196 | 0.9 | 3.5 | 0.00 | 0.00 | 0.00 | 47 | 1004.3 |
| 20260509211353 | 80 | 161 | 0.0 | 1.7 | 0.00 | 0.00 | 0.00 | 47 | 1004.4 |
| 20260509210850 | 80 | 21 | 0.0 | 1.7 | 0.00 | 0.00 | 0.00 | 48 | 1004.3 |
| 20260509210348 | 78 | 150 | 0.0 | 0.0 | 0.00 | 0.00 | 0.00 | 50 | 1004.4 |
| 20260509205851 | 78 | 75 | 0.0 | 0.0 | 0.00 | 0.00 | 0.00 | 48 | 1004.4 |
| 20260509205348 | 78 | 154 | 0.0 | 1.7 | 0.00 | 0.00 | 0.00 | 48 | 1004.4 |
| 20260509204851 | 79 | 174 | 0.9 | 2.6 | 0.00 | 0.00 | 0.00 | 47 | 1004.3 |
| 20260509204350 | 80 | 61 | 0.0 | 2.6 | 0.00 | 0.00 | 0.00 | 48 | 1004.3 |
| 20260509203849 | 80 | 150 | 0.0 | 0.9 | 0.00 | 0.00 | 0.00 | 45 | 1004.2 |
| 20260509203348 | 81 | 199 | 0.0 | 3.5 | 0.00 | 0.00 | 0.00 | 45 | 1004.0 |
| 20260509203111 | 81 | 67 | 0.0 | 3.5 | 0.00 | 0.00 | 0.00 | 45 | 1004.0 |
| 20260509202346 | 81 | 145 | 0.0 | 3.5 | 0.00 | 0.00 | 0.00 | 47 | 1004.0 |
| 20260509201846 | 80 | 155 | 0.9 | 3.5 | 0.00 | 0.00 | 0.00 | 47 | 1004.1 |
| 20260509201345 | 79 | 113 | 0.9 | 4.3 | 0.00 | 0.00 | 0.00 | 46 | 1004.3 |
| 20260509200845 | 80 | 207 | 0.9 | 5.2 | 0.00 | 0.00 | 0.00 | 47 | 1004.3 |
| 20260509200346 | 80 | 229 | 0.9 | 5.2 | 0.00 | 0.00 | 0.00 | 46 | 1004.3 |
| 20260509195845 | 80 | 203 | 0.9 | 3.5 | 0.00 | 0.00 | 0.00 | 47 | 1004.4 |
| 20260509195827 | 79 | 302 | 0.9 | 3.5 | 0.00 | 0.00 | 0.00 | 49 | 1004.5 |
| 20260509194845 | 78 | 148 | 0.0 | 1.7 | 0.00 | 0.00 | 0.00 | 50 | 1004.7 |
| 20260509194345 | 76 | 152 | 0.0 | 1.7 | 0.00 | 0.00 | 0.00 | 49 | 1004.7 |
| 20260509193846 | 76 | 227 | 0.9 | 3.5 | 0.00 | 0.00 | 0.00 | 49 | 1004.8 |
| 20260509193604 | 77 | 145 | 0.9 | 3.5 | 0.00 | 0.00 | 0.00 | 47 | 1004.8 |
| 20260509192844 | 78 | 64 | 0.9 | 5.2 | 0.00 | 0.00 | 0.00 | 47 | 1004.8 |
| 20260509192611 | 79 | 52 | 0.9 | 5.2 | 0.00 | 0.00 | 0.00 | 46 | 1004.8 |
| 20260509191845 | 79 | 165 | 0.9 | 5.2 | 0.00 | 0.00 | 0.00 | 46 | 1004.8 |
| 20260509191342 | 78 | 157 | 0.9 | 6.1 | 0.00 | 0.00 | 0.00 | 46 | 1004.9 |
| 20260509190841 | 78 | 219 | 0.9 | 4.3 | 0.00 | 0.00 | 0.00 | 47 | 1005.1 |
| 20260509190339 | 79 | 30 | 0.0 | 4.3 | 0.00 | 0.00 | 0.00 | 45 | 1005.2 |
| 20260509190105 | 79 | 203 | 0.0 | 1.7 | 0.00 | 0.00 | 0.00 | 47 | 1005.3 |
| 20260509185336 | 79 | 162 | 0.0 | 2.6 | 0.00 | 0.00 | 0.00 | 49 | 1005.3 |
| 20260509184836 | 78 | 176 | 0.9 | 2.6 | 0.00 | 0.00 | 0.00 | 48 | 1005.3 |
| 20260509184334 | 78 | 263 | 0.0 | 2.6 | 0.00 | 0.00 | 0.00 | 49 | 1005.3 |
| 20260509183833 | 78 | 17 | 0.9 | 6.1 | 0.00 | 0.00 | 0.00 | 49 | 1005.4 |
| 20260509183332 | 77 | 40 | 0.9 | 6.1 | 0.00 | 0.00 | 0.00 | 50 | 1005.5 |
| 20260509182831 | 76 | 3 | 0.9 | 3.5 | 0.00 | 0.00 | 0.00 | 50 | 1005.6 |
| 20260509182325 | 76 | 175 | 0.9 | 3.5 | 0.00 | 0.00 | 0.00 | 48 | 1005.7 |
| 20260509181819 | 77 | 230 | 0.9 | 5.2 | 0.00 | 0.00 | 0.00 | 48 | 1005.7 |
| 20260509181804 | 78 | 2 | 0.9 | 5.2 | 0.00 | 0.00 | 0.00 | 46 | 1005.9 |
| 20260509180813 | 79 | 200 | 0.9 | 6.1 | 0.00 | 0.00 | 0.00 | 45 | 1005.9 |
| 20260509180314 | 79 | 20 | 0.9 | 6.1 | 0.00 | 0.00 | 0.00 | 45 | 1005.9 |
| 20260509175812 | 80 | 13 | 0.9 | 4.3 | 0.00 | 0.00 | 0.00 | 45 | 1005.9 |
| 20260509175313 | 79 | 134 | 0.9 | 3.5 | 0.00 | 0.00 | 0.00 | 47 | 1005.9 |
| 20260509174812 | 79 | 208 | 0.9 | 4.3 | 0.00 | 0.00 | 0.00 | 46 | 1006.0 |
| 20260509174312 | 79 | 54 | 0.9 | 5.2 | 0.00 | 0.00 | 0.00 | 46 | 1006.0 |
| 20260509173814 | 79 | 345 | 0.9 | 5.2 | 0.00 | 0.00 | 0.00 | 45 | 1006.0 |
| 20260509173312 | 79 | 203 | 0.9 | 4.3 | 0.00 | 0.00 | 0.00 | 47 | 1005.8 |
| 20260509173033 | 79 | 278 | 0.9 | 2.6 | 0.00 | 0.00 | 0.00 | 48 | 1005.9 |
| 20260509172528 | 78 | 45 | 0.9 | 2.6 | 0.00 | 0.00 | 0.00 | 49 | 1006.1 |
| 20260509171811 | 77 | 297 | 0.9 | 1.7 | 0.00 | 0.00 | 0.00 | 49 | 1006.1 |
| 20260509171310 | 77 | 154 | 0.9 | 2.6 | 0.00 | 0.00 | 0.00 | 49 | 1006.2 |
| 20260509170810 | 77 | 57 | 0.9 | 3.5 | 0.00 | 0.00 | 0.00 | 49 | 1006.3 |
| 20260509170308 | 77 | 240 | 0.9 | 3.5 | 0.00 | 0.00 | 0.00 | 50 | 1006.5 |
| 20260509165809 | 77 | 225 | 0.9 | 2.6 | 0.00 | 0.00 | 0.00 | 50 | 1006.5 |
| 20260509165311 | 77 | 350 | 0.9 | 3.5 | 0.00 | 0.00 | 0.00 | 49 | 1006.6 |
| 20260509165024 | 76 | 214 | 0.9 | 5.2 | 0.00 | 0.00 | 0.00 | 51 | 1006.7 |
| 20260509164259 | 76 | 120 | 0.9 | 5.2 | 0.00 | 0.00 | 0.00 | 50 | 1006.9 |
| 20260509163754 | 76 | 117 | 0.9 | 3.5 | 0.00 | 0.00 | 0.00 | 50 | 1006.9 |
| 20260509163248 | 76 | 145 | 0.9 | 4.3 | 0.00 | 0.00 | 0.00 | 51 | 1006.8 |
| 20260509162742 | 75 | 90 | 1.7 | 4.3 | 0.00 | 0.00 | 0.00 | 52 | 1006.7 |
| 20260509162236 | 74 | 4 | 0.9 | 4.3 | 0.00 | 0.00 | 0.00 | 52 | 1006.7 |
| 20260509161730 | 74 | 68 | 0.9 | 3.5 | 0.00 | 0.00 | 0.00 | 53 | 1006.8 |
| 20260509161224 | 73 | 162 | 0.9 | 3.5 | 0.00 | 0.00 | 0.00 | 52 | 1006.8 |
| 20260509160945 | 73 | 334 | 0.9 | 5.2 | 0.00 | 0.00 | 0.00 | 53 | 1007.0 |
| 20260509160211 | 72 | 205 | 0.9 | 5.2 | 0.00 | 0.00 | 0.00 | 53 | 1007.1 |
| 20260509155706 | 72 | 31 | 0.9 | 4.3 | 0.00 | 0.00 | 0.00 | 53 | 1007.0 |
| 20260509155200 | 72 | 168 | 0.9 | 4.3 | 0.00 | 0.00 | 0.00 | 51 | 1007.1 |
| 20260509154654 | 72 | 169 | 0.9 | 2.6 | 0.00 | 0.00 | 0.00 | 52 | 1007.2 |
| 20260509154148 | 72 | 197 | 0.9 | 3.5 | 0.00 | 0.00 | 0.00 | 54 | 1007.3 |
| 20260509153641 | 72 | 136 | 0.9 | 3.5 | 0.00 | 0.00 | 0.00 | 55 | 1007.3 |
| 20260509153357 | 71 | 155 | 0.0 | 2.6 | 0.00 | 0.00 | 0.00 | 56 | 1007.3 |
| 20260509152630 | 71 | 217 | 0.9 | 5.2 | 0.00 | 0.00 | 0.00 | 60 | 1007.3 |
| 20260509152124 | 70 | 153 | 0.9 | 5.2 | 0.00 | 0.00 | 0.00 | 59 | 1007.3 |
| 20260509151618 | 70 | 215 | 0.9 | 3.5 | 0.00 | 0.00 | 0.00 | 59 | 1007.6 |
| 20260509151112 | 69 | 335 | 0.9 | 2.6 | 0.00 | 0.00 | 0.00 | 60 | 1007.6 |
| 20260509150607 | 69 | 58 | 0.9 | 3.5 | 0.00 | 0.00 | 0.00 | 60 | 1007.6 |
| 20260509145554 | 69 | 230 | 0.0 | 2.6 | 0.00 | 0.00 | 0.00 | 62 | 1007.7 |
| 20260509145047 | 68 | 52 | 0.0 | 1.7 | 0.00 | 0.00 | 0.00 | 62 | 1007.8 |
| 20260509144541 | 68 | 205 | 0.0 | 2.6 | 0.00 | 0.00 | 0.00 | 65 | 1007.9 |
| 20260509144036 | 68 | 275 | 0.0 | 2.6 | 0.00 | 0.00 | 0.00 | 64 | 1008.1 |
| 20260509143529 | 67 | 355 | 0.0 | 2.6 | 0.00 | 0.00 | 0.00 | 66 | 1008.3 |
| 20260509143024 | 67 | 22 | 0.9 | 4.3 | 0.00 | 0.00 | 0.00 | 66 | 1008.3 |
| 20260509142518 | 67 | 78 | 0.0 | 4.3 | 0.00 | 0.00 | 0.00 | 66 | 1008.4 |
| 20260509142011 | 67 | 330 | 0.0 | 2.6 | 0.00 | 0.00 | 0.00 | 67 | 1008.4 |
| 20260509141505 | 66 | 221 | 0.0 | 2.6 | 0.00 | 0.00 | 0.00 | 67 | 1008.5 |
| 20260509141000 | 66 | 195 | 0.0 | 2.6 | 0.00 | 0.00 | 0.00 | 68 | 1008.5 |
| 20260509140710 | 66 | 22 | 0.0 | 2.6 | 0.00 | 0.00 | 0.00 | 69 | 1008.4 |
| 20260509140210 | 65 | 221 | 0.0 | 3.5 | 0.00 | 0.00 | 0.00 | 70 | 1008.3 |
| 20260509135707 | 65 | 353 | 0.0 | 3.5 | 0.00 | 0.00 | 0.00 | 70 | 1008.4 |
| 20260509135152 | 65 | 288 | 0.0 | 0.9 | 0.00 | 0.00 | 0.00 | 72 | 1008.4 |
| 20260509134430 | 64 | 28 | 0.0 | 0.9 | 0.00 | 0.00 | 0.00 | 73 | 1008.5 |
| 20260509133923 | 64 | 28 | 0.9 | 4.3 | 0.00 | 0.00 | 0.00 | 73 | 1008.7 |
| 20260509133418 | 64 | 91 | 0.9 | 4.3 | 0.00 | 0.00 | 0.00 | 73 | 1008.9 |
| 20260509132911 | 63 | 345 | 0.0 | 2.6 | 0.00 | 0.00 | 0.00 | 74 | 1008.9 |
| 20260509132405 | 63 | 151 | 0.0 | 2.6 | 0.00 | 0.00 | 0.00 | 76 | 1008.9 |
| 20260509131900 | 63 | 229 | 0.0 | 0.0 | 0.00 | 0.00 | 0.00 | 77 | 1009.0 |
| 20260509131354 | 62 | 178 | 0.0 | 0.0 | 0.00 | 0.00 | 0.00 | 78 | 1008.9 |
| 20260509130847 | 62 | 174 | 0.0 | 1.7 | 0.00 | 0.00 | 0.00 | 79 | 1008.8 |
| 20260509130342 | 61 | 153 | 0.0 | 1.7 | 0.00 | 0.00 | 0.00 | 79 | 1008.8 |
| 20260509125330 | 60 | 147 | 0.0 | 0.9 | 0.00 | 0.00 | 0.00 | 81 | 1008.6 |
| 20260509124824 | 60 | 146 | 0.0 | 0.9 | 0.00 | 0.00 | 0.00 | 81 | 1008.8 |
| 20260509124318 | 59 | 133 | 0.0 | 0.9 | 0.00 | 0.00 | 0.00 | 82 | 1008.8 |
| 20260509123812 | 59 | 96 | 0.0 | 0.9 | 0.00 | 0.00 | 0.00 | 83 | 1008.7 |
| 20260509123306 | 58 | 105 | 0.0 | 0.9 | 0.00 | 0.00 | 0.00 | 83 | 1008.8 |
| 20260509122800 | 58 | 28 | 0.0 | 0.9 | 0.00 | 0.00 | 0.00 | 84 | 1008.9 |
| 20260509122253 | 58 | 158 | 0.0 | 0.0 | 0.00 | 0.00 | 0.00 | 84 | 1008.9 |
| 20260509121747 | 57 | 158 | 0.0 | 0.9 | 0.00 | 0.00 | 0.00 | 85 | 1009.0 |
| 20260509121500 | 57 | 161 | 0.0 | 0.9 | 0.00 | 0.00 | 0.00 | 85 | 1009.1 |
| 20260509120736 | 56 | 80 | 0.0 | 0.9 | 0.00 | 0.00 | 0.00 | 85 | 1009.1 |
| 20260509120229 | 56 | 44 | 0.0 | 1.7 | 0.00 | 0.00 | 0.00 | 86 | 1009.0 |
| 20260509115723 | 56 | 75 | 0.0 | 1.7 | 0.00 | 0.00 | 0.00 | 87 | 1009.0 |
| 20260509115218 | 55 | 39 | 0.0 | 1.7 | 0.00 | 0.00 | 0.00 | 87 | 1008.9 |
| 20260509115157 | 55 | 44 | 0.0 | 0.0 | 0.00 | 0.00 | 0.00 | 88 | 1008.8 |
| 20260509114209 | 55 | 44 | 0.0 | 0.0 | 0.00 | 0.00 | 0.00 | 88 | 1008.8 |
| 20260509113706 | 54 | 42 | 0.0 | 0.9 | 0.00 | 0.00 | 0.00 | 88 | 1008.7 |
| 20260509113205 | 54 | 42 | 0.0 | 0.9 | 0.00 | 0.00 | 0.00 | 88 | 1008.8 |
| 20260509112925 | 54 | 42 | 0.0 | 0.0 | 0.00 | 0.01 | 0.00 | 88 | 1008.7 |
| 20260509112201 | 53 | 42 | 0.0 | 0.0 | 0.00 | 0.01 | 0.00 | 88 | 1008.7 |
| 20260509111659 | 53 | 34 | 0.0 | 0.0 | 0.00 | 0.01 | 0.00 | 88 | 1008.7 |
| 20260509111157 | 53 | 22 | 0.0 | 0.9 | 0.00 | 0.01 | 0.00 | 88 | 1008.8 |
| 20260509110653 | 53 | 22 | 0.0 | 0.9 | 0.00 | 0.01 | 0.00 | 88 | 1008.9 |
| 20260509110151 | 53 | 266 | 0.0 | 0.0 | 0.00 | 0.01 | 0.00 | 88 | 1008.8 |
| 20260509105652 | 53 | 266 | 0.0 | 0.0 | 0.00 | 0.01 | 0.00 | 88 | 1008.7 |
| 20260509105153 | 52 | 266 | 0.0 | 0.0 | 0.00 | 0.01 | 0.00 | 88 | 1008.8 |
| 20260509104651 | 52 | 266 | 0.0 | 0.0 | 0.00 | 0.01 | 0.00 | 87 | 1008.8 |
| 20260509104412 | 52 | 266 | 0.0 | 0.0 | 0.00 | 0.01 | 0.00 | 87 | 1008.8 |
| 20260509103652 | 52 | 266 | 0.0 | 0.0 | 0.00 | 0.01 | 0.00 | 87 | 1008.8 |
| 20260509103152 | 52 | 266 | 0.0 | 0.0 | 0.00 | 0.01 | 0.00 | 87 | 1008.7 |
| 20260509102921 | 52 | 266 | 0.0 | 0.0 | 0.00 | 0.01 | 0.00 | 87 | 1008.6 |
| 20260509102151 | 52 | 266 | 0.0 | 0.0 | 0.00 | 0.01 | 0.00 | 86 | 1008.5 |
| 20260509101652 | 52 | 266 | 0.0 | 0.0 | 0.00 | 0.01 | 0.00 | 86 | 1008.5 |
| 20260509101410 | 52 | 266 | 0.0 | 0.0 | 0.00 | 0.01 | 0.00 | 86 | 1008.5 |
| 20260509100923 | 53 | 266 | 0.0 | 0.0 | 0.00 | 0.01 | 0.00 | 86 | 1008.6 |
| 20260509100151 | 53 | 266 | 0.0 | 0.0 | 0.00 | 0.01 | 0.00 | 85 | 1008.7 |
| 20260509095652 | 53 | 266 | 0.0 | 0.0 | 0.00 | 0.01 | 0.00 | 85 | 1008.6 |
| 20260509095149 | 53 | 266 | 0.0 | 0.0 | 0.00 | 0.01 | 0.00 | 84 | 1008.7 |
| 20260509094647 | 53 | 266 | 0.0 | 0.0 | 0.00 | 0.01 | 0.00 | 84 | 1008.6 |
| 20260509094148 | 53 | 266 | 0.0 | 0.9 | 0.00 | 0.01 | 0.00 | 84 | 1008.7 |
| 20260509093648 | 53 | 266 | 0.0 | 0.9 | 0.00 | 0.01 | 0.00 | 84 | 1008.7 |
| 20260509093406 | 53 | 266 | 0.0 | 0.0 | 0.00 | 0.01 | 0.00 | 84 | 1008.7 |
| 20260509092648 | 53 | 266 | 0.0 | 0.0 | 0.00 | 0.01 | 0.00 | 83 | 1008.8 |
| 20260509092148 | 53 | 266 | 0.0 | 2.6 | 0.00 | 0.01 | 0.00 | 83 | 1008.8 |
| 20260509091649 | 53 | 266 | 0.0 | 2.6 | 0.00 | 0.01 | 0.00 | 83 | 1008.9 |
| 20260509091150 | 53 | 141 | 0.0 | 0.0 | 0.00 | 0.01 | 0.00 | 82 | 1008.8 |
| 20260509090642 | 53 | 141 | 0.0 | 0.0 | 0.00 | 0.01 | 0.00 | 81 | 1008.8 |
| 20260509090137 | 53 | 141 | 0.0 | 0.0 | 0.00 | 0.01 | 0.00 | 81 | 1008.8 |
| 20260509085630 | 54 | 141 | 0.0 | 0.0 | 0.00 | 0.01 | 0.00 | 81 | 1008.8 |
| 20260509085345 | 54 | 141 | 0.0 | 0.0 | 0.00 | 0.01 | 0.00 | 80 | 1008.8 |
| 20260509084839 | 54 | 141 | 0.0 | 0.0 | 0.00 | 0.01 | 0.00 | 80 | 1008.7 |
| 20260509084112 | 54 | 141 | 0.0 | 0.0 | 0.00 | 0.01 | 0.00 | 80 | 1008.7 |
| 20260509083828 | 54 | 141 | 0.0 | 0.0 | 0.00 | 0.01 | 0.00 | 80 | 1008.6 |
| 20260509083107 | 54 | 141 | 0.0 | 0.0 | 0.00 | 0.01 | 0.00 | 79 | 1008.6 |
| 20260509082607 | 54 | 141 | 0.0 | 0.0 | 0.00 | 0.01 | 0.00 | 79 | 1008.5 |
| 20260509082110 | 54 | 141 | 0.0 | 0.0 | 0.00 | 0.01 | 0.00 | 78 | 1008.4 |
| 20260509081608 | 54 | 141 | 0.0 | 0.0 | 0.00 | 0.01 | 0.00 | 78 | 1008.4 |
| 20260509081106 | 55 | 141 | 0.0 | 0.0 | 0.00 | 0.01 | 0.00 | 77 | 1008.4 |
| 20260509080603 | 55 | 141 | 0.0 | 0.0 | 0.00 | 0.01 | 0.00 | 76 | 1008.4 |
| 20260509080103 | 55 | 141 | 0.0 | 0.0 | 0.00 | 0.01 | 0.00 | 76 | 1008.4 |
| 20260509075605 | 55 | 141 | 0.0 | 0.0 | 0.00 | 0.01 | 0.00 | 75 | 1008.6 |
| 20260509075102 | 56 | 141 | 0.0 | 0.0 | 0.00 | 0.01 | 0.00 | 75 | 1008.8 |
| 20260509074559 | 56 | 141 | 0.0 | 0.0 | 0.00 | 0.01 | 0.00 | 75 | 1008.7 |
| 20260509074319 | 56 | 141 | 0.0 | 0.0 | 0.00 | 0.01 | 0.00 | 74 | 1008.7 |
| 20260509073557 | 56 | 141 | 0.0 | 0.0 | 0.00 | 0.01 | 0.00 | 74 | 1008.8 |
| 20260509073054 | 56 | 141 | 0.0 | 0.9 | 0.00 | 0.01 | 0.00 | 74 | 1008.8 |
| 20260509072555 | 56 | 141 | 0.0 | 0.9 | 0.00 | 0.01 | 0.00 | 74 | 1008.7 |
| 20260509072049 | 56 | 186 | 0.0 | 1.7 | 0.00 | 0.01 | 0.00 | 74 | 1008.8 |
| 20260509071810 | 56 | 226 | 0.0 | 1.7 | 0.00 | 0.01 | 0.00 | 74 | 1008.8 |
| 20260509071047 | 56 | 226 | 0.0 | 0.9 | 0.00 | 0.01 | 0.00 | 74 | 1008.8 |
| 20260509070544 | 56 | 226 | 0.0 | 0.9 | 0.00 | 0.01 | 0.00 | 74 | 1008.9 |
| 20260509070044 | 56 | 226 | 0.0 | 0.9 | 0.00 | 0.01 | 0.00 | 74 | 1009.0 |
| 20260509065537 | 56 | 233 | 0.0 | 0.9 | 0.00 | 0.01 | 0.00 | 74 | 1009.1 |
| 20260509065032 | 56 | 233 | 0.0 | 1.7 | 0.00 | 0.01 | 0.00 | 74 | 1009.2 |
| 20260509064525 | 56 | 228 | 0.0 | 1.7 | 0.00 | 0.01 | 0.00 | 74 | 1009.3 |
| 20260509064247 | 56 | 100 | 0.0 | 0.9 | 0.00 | 0.01 | 0.00 | 74 | 1009.4 |
| 20260509063514 | 56 | 79 | 0.0 | 1.7 | 0.00 | 0.01 | 0.00 | 73 | 1009.5 |
| 20260509063008 | 56 | 91 | 0.0 | 1.7 | 0.00 | 0.01 | 0.00 | 73 | 1009.6 |
| 20260509062502 | 56 | 145 | 0.0 | 0.0 | 0.00 | 0.01 | 0.00 | 72 | 1009.7 |
| 20260509061956 | 56 | 145 | 0.0 | 0.0 | 0.00 | 0.01 | 0.00 | 72 | 1009.8 |
| 20260509061450 | 56 | 145 | 0.0 | 0.0 | 0.00 | 0.01 | 0.00 | 71 | 1009.9 |
| 20260509060944 | 56 | 144 | 0.0 | 0.0 | 0.00 | 0.01 | 0.00 | 70 | 1009.9 |
| 20260509060701 | 56 | 144 | 0.0 | 0.0 | 0.00 | 0.01 | 0.00 | 70 | 1009.9 |
| 20260509060427 | 56 | 145 | 0.0 | 0.0 | 0.00 | 0.01 | 0.00 | 69 | 1010.0 |
| 20260509055426 | 56 | 144 | 0.0 | 0.0 | 0.00 | 0.01 | 0.00 | 68 | 1009.9 |
| 20260509054920 | 57 | 144 | 0.0 | 0.9 | 0.00 | 0.01 | 0.00 | 67 | 1009.9 |
| 20260509054414 | 57 | 144 | 0.0 | 0.9 | 0.00 | 0.01 | 0.00 | 67 | 1009.9 |
| 20260509053908 | 57 | 145 | 0.0 | 0.9 | 0.00 | 0.01 | 0.00 | 66 | 1009.9 |
| 20260509053624 | 57 | 144 | 0.0 | 0.9 | 0.00 | 0.01 | 0.00 | 66 | 1009.9 |
| 20260509053119 | 57 | 144 | 0.0 | 0.9 | 0.00 | 0.01 | 0.00 | 65 | 1009.8 |
| 20260509052350 | 57 | 144 | 0.0 | 0.9 | 0.00 | 0.01 | 0.00 | 65 | 1009.7 |
| 20260509051843 | 57 | 139 | 0.0 | 0.9 | 0.00 | 0.01 | 0.00 | 64 | 1009.7 |
| 20260509051338 | 57 | 139 | 0.0 | 0.9 | 0.00 | 0.01 | 0.00 | 64 | 1009.7 |
| 20260509050832 | 57 | 129 | 0.0 | 0.9 | 0.00 | 0.01 | 0.00 | 64 | 1009.7 |
| 20260509050326 | 57 | 129 | 0.0 | 0.9 | 0.00 | 0.01 | 0.00 | 64 | 1009.7 |
| 20260509050046 | 57 | 129 | 0.0 | 0.0 | 0.00 | 0.01 | 0.00 | 64 | 1009.7 |
| 20260509045314 | 57 | 129 | 0.0 | 0.0 | 0.00 | 0.01 | 0.00 | 63 | 1009.6 |
| 20260509044808 | 57 | 129 | 0.0 | 0.0 | 0.00 | 0.01 | 0.00 | 63 | 1009.5 |
| 20260509044258 | 57 | 129 | 0.0 | 0.0 | 0.00 | 0.01 | 0.00 | 63 | 1009.5 |
| 20260509043752 | 58 | 129 | 0.0 | 0.0 | 0.00 | 0.01 | 0.00 | 63 | 1009.5 |
| 20260509043735 | 58 | 129 | 0.0 | 0.0 | 0.00 | 0.01 | 0.00 | 63 | 1009.4 |
| 20260509042740 | 58 | 129 | 0.0 | 0.0 | 0.00 | 0.01 | 0.00 | 61 | 1009.6 |
| 20260509042234 | 59 | 129 | 0.0 | 0.0 | 0.00 | 0.01 | 0.00 | 60 | 1009.5 |
| 20260509041728 | 59 | 129 | 0.0 | 0.0 | 0.00 | 0.01 | 0.00 | 59 | 1009.5 |
| 20260509041224 | 59 | 129 | 0.0 | 0.0 | 0.00 | 0.01 | 0.00 | 59 | 1009.6 |
| 20260509040724 | 60 | 129 | 0.0 | 0.0 | 0.00 | 0.01 | 0.00 | 58 | 1009.7 |
| 20260509040224 | 60 | 129 | 0.0 | 0.9 | 0.00 | 0.01 | 0.00 | 58 | 1009.6 |
| 20260509035942 | 59 | 129 | 0.0 | 0.9 | 0.00 | 0.01 | 0.01 | 57 | 1009.6 |
| 20260509035222 | 60 | 129 | 0.0 | 0.0 | 0.00 | 0.01 | 0.01 | 58 | 1009.7 |
| 20260509034723 | 60 | 129 | 0.0 | 0.9 | 0.00 | 0.01 | 0.01 | 57 | 1009.8 |
| 20260509034221 | 60 | 129 | 0.0 | 0.9 | 0.00 | 0.01 | 0.01 | 56 | 1009.8 |
| 20260509033722 | 60 | 129 | 0.0 | 0.9 | 0.00 | 0.01 | 0.01 | 56 | 1009.8 |
| 20260509033220 | 60 | 129 | 0.0 | 0.9 | 0.00 | 0.01 | 0.01 | 56 | 1010.0 |
| 20260509032718 | 60 | 129 | 0.0 | 0.9 | 0.00 | 0.01 | 0.01 | 56 | 1010.0 |
| 20260509032219 | 60 | 129 | 0.0 | 0.9 | 0.00 | 0.01 | 0.01 | 55 | 1010.0 |
| 20260509031719 | 60 | 52 | 0.0 | 0.9 | 0.00 | 0.01 | 0.01 | 55 | 1009.9 |
| 20260509031215 | 60 | 150 | 0.0 | 0.0 | 0.00 | 0.01 | 0.01 | 55 | 1010.0 |
| 20260509030715 | 60 | 150 | 0.0 | 0.9 | 0.00 | 0.01 | 0.01 | 55 | 1009.9 |
| 20260509030216 | 60 | 150 | 0.0 | 0.9 | 0.00 | 0.01 | 0.01 | 54 | 1009.8 |
| 20260509025714 | 60 | 150 | 0.0 | 0.9 | 0.00 | 0.01 | 0.01 | 54 | 1009.8 |
| 20260509025212 | 60 | 217 | 0.0 | 0.9 | 0.00 | 0.01 | 0.01 | 53 | 1010.0 |
| 20260509024934 | 60 | 219 | 0.0 | 0.0 | 0.00 | 0.01 | 0.01 | 53 | 1009.9 |
| 20260509024208 | 60 | 219 | 0.0 | 0.9 | 0.00 | 0.01 | 0.01 | 53 | 1009.9 |
| 20260509023928 | 60 | 219 | 0.0 | 0.9 | 0.00 | 0.01 | 0.01 | 52 | 1010.0 |
| 20260509023204 | 60 | 219 | 0.0 | 0.9 | 0.00 | 0.01 | 0.01 | 52 | 1009.9 |
| 20260509022659 | 60 | 219 | 0.0 | 0.9 | 0.00 | 0.01 | 0.01 | 51 | 1009.9 |
| 20260509022158 | 61 | 219 | 0.0 | 0.9 | 0.00 | 0.01 | 0.01 | 50 | 1009.9 |
| 20260509022152 | 60 | 219 | 0.0 | 0.9 | 0.00 | 0.01 | 0.01 | 50 | 1009.9 |
| 20260509021359 | 61 | 141 | 0.0 | 0.9 | 0.00 | 0.01 | 0.01 | 50 | 1010.0 |